Location: Boca de Tacagua
(10.5333°N, 66.9833°W)
Time: 14:41:56
(UTC+00:00)

Cosmos 1666 Rocket - Visible Passes

Search period start: 03 July 2022 00:00
Search period end: 13 July 2022 00:00
Orbit: 604 x 631 km, 82.5° (Epoch: 02 July)

Date Brightness Start Highest point End Pass type
(mag) Time Alt. Az. Time Alt. Az. Time Alt. Az.
03 Jul 4.6 08:46:53 29° WNW 08:46:53 29° WNW 08:50:10 10° NNW visible
04 Jul 6.1 07:27:11 19° ENE 07:27:11 19° ENE 07:29:08 10° NE visible
04 Jul 5.6 09:04:21 13° WNW 09:04:21 13° WNW 09:05:36 10° NW visible
05 Jul 5.5 07:44:37 27° NNE 07:44:37 27° NNE 07:46:48 10° NNE visible
06 Jul 5.4 08:02:00 24° N 08:02:00 24° N 08:03:50 10° N visible
07 Jul 5.8 08:19:21 15° NNW 08:19:21 15° NNW 08:20:15 10° NNW visible
09 Jul 6.6 07:16:49 11° NNE 07:16:49 11° NNE 07:16:55 10° NNE visible
